Weather reports worldwide

Advertisment
Page/Page A., United States of America (72371): temperature & dewpoint: 16.07.2019 08:00:00 - 22.07.2019 08:00:00 (MST)Page/Page A., United States of America (72371): wind speed & gusts: 16.07.2019 08:00:00 - 22.07.2019 08:00:00 (MST)Page/Page A., United States of America (72371): wind direction: 16.07.2019 08:00:00 - 22.07.2019 08:00:00 (MST)Page/Page A., United States of America (72371): reduced air pressure: 16.07.2019 08:00:00 - 22.07.2019 08:00:00 (MST)Page/Page A., United States of America (72371): visibility: 16.07.2019 08:00:00 - 22.07.2019 08:00:00 (MST)Page/Page A., United States of America (72371): precipitation: 16.07.2019 08:00:00 - 22.07.2019 08:00:00 (MST)
Date & Time tt [°C] td [°C] ff [km/h] ff [kn] fx [km/h] fx [kn] dd ppp [hPa] vv [km] rr [mm]
22.07.2019 08:00:00 28,3 -0,6 0 0 - - N 1012,7 16 -
22.07.2019 07:00:00 27,2 2,2 0 0 - - N 1012,0 16 -
22.07.2019 06:00:00 23,9 -1,7 8 4 - - SSE 1011,7 16 -
22.07.2019 05:00:00 24,4 -1,7 5 3 - - SE 1011,2 16 0,0
22.07.2019 04:00:00 23,9 -0,6 0 0 - - N 1010,9 16 -
22.07.2019 03:00:00 24,4 -0,6 0 0 - - N 1010,6 16 -
22.07.2019 02:00:00 26,7 -1,1 0 0 - - N 1010,1 16 -
22.07.2019 01:00:00 27,8 -1,1 5 3 - - W 1009,8 16 -
22.07.2019 00:00:00 30,0 -2,2 5 3 - - W 1009,7 16 -
21.07.2019 23:00:00 31,1 -2,8 0 0 - - N 1009,6 16 0,0
21.07.2019 22:00:00 30,0 -2,8 0 0 - - N 1009,3 16 -
21.07.2019 21:00:00 32,2 -3,3 5 3 - - W 1008,6 16 -
21.07.2019 20:00:00 33,9 -4,4 8 4 - - WNW 1008,3 16 -
21.07.2019 19:00:00 36,7 -3,3 9 5 - - N 1007,9 16 -
21.07.2019 18:00:00 36,7 -2,8 0 0 - - N 1008,2 16 -
21.07.2019 17:00:00 37,8 -2,2 8 4 - - NE 1008,5 16 0,0
21.07.2019 16:00:00 37,2 -2,8 5 3 - - - 1008,7 16 -
21.07.2019 15:00:00 37,2 -2,8 9 5 - - - 1009,3 16 -
21.07.2019 14:00:00 36,1 -1,7 21 11 - - NNE 1010,3 16 -
21.07.2019 13:00:00 35,6 -1,7 18 10 - - NNE 1010,5 16 -
21.07.2019 12:00:00 35,0 -1,7 16 9 - - NNE 1010,9 16 -
21.07.2019 11:00:00 33,9 -0,6 9 5 - - N 1011,1 16 0,0
21.07.2019 10:00:00 31,7 -0,6 0 0 - - N 1011,5 16 -
21.07.2019 09:00:00 30,6 -0,6 8 4 - - E 1011,6 16 -
21.07.2019 08:00:00 28,3 -1,1 8 4 - - ESE 1011,2 16 -
21.07.2019 07:00:00 26,1 0,0 0 0 - - N 1011,1 16 -
21.07.2019 06:00:00 23,3 0,0 0 0 - - N 1010,7 16 -
21.07.2019 05:00:00 22,2 0,6 0 0 - - N 1009,6 16 0,0
21.07.2019 04:00:00 25,6 -0,6 0 0 - - N 1008,8 16 -
21.07.2019 03:00:00 27,2 -1,1 8 4 - - W 1008,3 16 -
21.07.2019 02:00:00 26,1 -1,1 8 4 - - NNW 1008,4 16 -
21.07.2019 01:00:00 27,2 -1,7 0 0 - - N 1008,2 16 -
21.07.2019 00:00:00 30,0 -2,8 5 3 - - WSW 1007,2 16 -
20.07.2019 23:00:00 31,1 -2,8 8 4 - - WSW 1006,6 16 0,0
20.07.2019 22:00:00 30,6 -1,7 8 4 - - W 1006,1 16 -
20.07.2019 21:00:00 31,7 -2,2 5 3 - - W 1005,4 16 -
20.07.2019 20:00:00 34,4 -1,7 9 5 - - N 1004,7 16 -
20.07.2019 19:00:00 36,1 -4,4 16 9 - - N 1004,7 16 -
20.07.2019 18:00:00 36,7 -4,4 9 5 - - S 1004,9 16 -
20.07.2019 17:00:00 37,2 -5,0 8 4 - - WNW 1005,2 16 0,0
20.07.2019 16:00:00 37,2 -5,6 9 5 - - NNW 1005,8 16 -
20.07.2019 15:00:00 36,7 -6,1 11 6 - - W 1006,6 16 -
20.07.2019 14:00:00 35,0 -7,2 9 5 - - - 1007,4 16 -
20.07.2019 13:00:00 33,9 -7,2 9 5 - - S 1007,9 16 -
20.07.2019 12:00:00 33,3 -7,2 15 8 - - N 1008,6 16 -
20.07.2019 11:00:00 31,1 -8,3 0 0 - - N 1009,1 16 0,0
20.07.2019 10:00:00 30,0 -8,3 0 0 - - N 1009,4 16 -
20.07.2019 09:00:00 28,9 -8,3 9 5 - - N 1009,4 16 -
20.07.2019 08:00:00 27,2 -9,4 11 6 - - NNW 1009,3 16 -
20.07.2019 07:00:00 25,6 -8,9 0 0 - - N 1008,9 16 -
20.07.2019 06:00:00 23,3 -8,9 0 0 - - N 1008,5 16 -
20.07.2019 05:00:00 23,3 -10,0 8 4 - - WSW 1007,7 16 0,0
20.07.2019 04:00:00 23,9 -8,9 8 4 - - SW 1007,0 16 -
20.07.2019 03:00:00 25,6 -7,2 0 0 - - N 1006,7 16 -
20.07.2019 02:00:00 26,1 -7,8 0 0 - - N 1006,7 16 -
20.07.2019 01:00:00 28,9 -8,9 8 4 - - SW 1006,3 16 -
20.07.2019 00:00:00 30,0 -9,4 5 3 - - - 1006,1 16 -
19.07.2019 23:00:00 31,7 -6,7 9 5 - - WSW 1005,6 16 0,0
19.07.2019 22:00:00 31,7 -1,1 9 5 - - SW 1005,2 16 -
19.07.2019 21:00:00 33,3 0,0 9 5 - - SW 1004,7 16 -
19.07.2019 20:00:00 33,9 2,8 9 5 - - SSW 1004,2 16 -
19.07.2019 19:00:00 34,4 3,3 13 7 - - SSW 1004,4 16 -
19.07.2019 18:00:00 35,6 4,4 15 8 - - SW 1004,6 16 -
19.07.2019 17:00:00 36,1 5,0 21 11 - - SSW 1004,5 16 0,0
19.07.2019 16:00:00 37,2 4,4 13 7 - - SSW 1004,3 16 -
19.07.2019 15:00:00 36,1 5,6 18 10 - - SSW 1004,8 16 -
19.07.2019 14:00:00 36,1 5,0 13 7 - - SSW 1005,2 16 -
19.07.2019 13:00:00 36,7 4,4 9 5 - - - 1005,9 16 -
19.07.2019 12:00:00 34,4 2,8 5 3 - - - 1007,1 16 -
19.07.2019 11:00:00 33,3 2,8 5 3 - - - 1008,1 16 0,0
19.07.2019 10:00:00 31,7 2,8 9 5 - - N 1008,6 16 -
19.07.2019 09:00:00 30,0 2,2 8 4 - - - 1008,8 16 -
19.07.2019 08:00:00 27,8 2,2 8 4 - - E 1008,9 16 -
19.07.2019 07:00:00 25,6 2,8 9 5 - - SSE 1008,5 16 -
19.07.2019 06:00:00 23,3 2,2 9 5 - - SE 1008,1 16 -
19.07.2019 05:00:00 23,9 1,7 8 4 - - ENE 1007,5 16 0,0
19.07.2019 04:00:00 25,6 1,7 0 0 - - N 1006,9 16 -
19.07.2019 03:00:00 27,2 1,7 8 4 - - SW 1006,5 16 -
19.07.2019 02:00:00 29,4 1,1 8 4 - - WSW 1006,5 16 -
19.07.2019 01:00:00 30,6 0,6 9 5 - - W 1006,4 16 -
19.07.2019 00:00:00 31,1 1,1 13 7 - - WNW 1006,5 16 -
18.07.2019 23:00:00 31,1 1,7 9 5 - - SSW 1006,8 16 0,0
18.07.2019 22:00:00 31,7 2,2 9 5 - - - 1006,5 16 -
18.07.2019 21:00:00 32,8 2,2 9 5 - - - 1006,1 16 -
18.07.2019 20:00:00 33,9 2,8 13 7 - - WNW 1005,3 16 -
18.07.2019 19:00:00 35,6 2,8 18 10 - - NW 1004,9 16 -
18.07.2019 18:00:00 37,2 1,7 24 13 - - NW 1004,8 16 -
18.07.2019 17:00:00 37,8 1,1 18 10 - - WNW 1005,4 16 0,0
18.07.2019 16:00:00 37,8 1,1 13 7 - - W 1005,9 16 -
18.07.2019 15:00:00 37,8 2,2 - - - - - 1006,6 16 -
18.07.2019 14:00:00 36,1 3,9 9 5 - - - 1007,7 16 -
18.07.2019 13:00:00 34,4 5,0 9 5 - - WSW 1008,4 16 -
18.07.2019 12:00:00 33,3 5,6 9 5 - - - 1009,4 16 -
18.07.2019 11:00:00 32,2 6,1 13 7 - - NNW 1010,3 16 0,0
18.07.2019 10:00:00 30,6 6,1 9 5 - - NE 1011,1 16 -
18.07.2019 09:00:00 28,9 4,4 5 3 - - ENE 1011,4 16 -
18.07.2019 08:00:00 27,8 3,3 9 5 - - NE 1011,3 16 -
18.07.2019 07:00:00 25,6 2,8 0 0 - - N 1010,8 16 -
18.07.2019 06:00:00 23,3 0,0 5 3 - - ESE 1010,5 16 -
18.07.2019 05:00:00 22,2 0,6 11 6 - - SSE 1010,4 16 0,0
18.07.2019 04:00:00 23,3 -1,7 11 6 - - ESE 1009,9 16 -
18.07.2019 03:00:00 24,4 -4,4 5 3 - - ESE 1009,4 16 -
18.07.2019 02:00:00 25,6 -4,4 0 0 - - N 1009,5 16 -
18.07.2019 01:00:00 29,4 -6,1 5 3 - - WSW 1008,9 16 -
18.07.2019 00:00:00 30,6 -7,8 11 6 - - - 1008,8 16 -
17.07.2019 23:00:00 31,1 -7,8 15 8 - - W 1008,6 16 0,0
17.07.2019 22:00:00 31,1 -5,0 5 3 - - - 1008,2 16 -
17.07.2019 21:00:00 32,8 -3,9 11 6 - - - 1007,3 16 -
17.07.2019 20:00:00 34,4 -2,8 13 7 - - W 1006,4 16 -
17.07.2019 19:00:00 36,1 -2,8 11 6 - - WSW 1005,7 16 -
17.07.2019 18:00:00 37,2 -2,2 11 6 - - - 1005,7 16 -
17.07.2019 17:00:00 37,8 0,6 9 5 - - - 1005,8 16 0,0
17.07.2019 16:00:00 38,3 1,7 13 7 - - SW 1006,1 16 -
17.07.2019 15:00:00 38,3 1,7 21 11 - - W 1006,6 16 -
17.07.2019 14:00:00 36,7 2,8 13 7 - - SW 1007,1 16 -
17.07.2019 13:00:00 36,1 1,1 0 0 - - N 1007,9 16 -
17.07.2019 12:00:00 35,0 -0,6 15 8 - - N 1008,8 16 -
17.07.2019 11:00:00 34,4 -0,6 13 7 - - N 1009,5 16 0,0
17.07.2019 10:00:00 32,8 1,1 15 8 - - N 1009,7 16 -
17.07.2019 09:00:00 31,1 2,2 5 3 - - NNE 1009,8 16 -
17.07.2019 08:00:00 28,9 3,3 0 0 - - N 1009,6 16 -
17.07.2019 07:00:00 26,7 1,1 9 5 - - S 1008,9 16 -
17.07.2019 06:00:00 25,0 1,7 5 3 - - SW 1008,2 16 -
17.07.2019 05:00:00 25,6 3,3 0 0 - - N 1007,4 16 0,0
17.07.2019 04:00:00 25,6 2,2 0 0 - - N 1006,5 16 -
17.07.2019 03:00:00 26,7 1,1 9 5 - - SSE 1006,2 16 -
17.07.2019 02:00:00 29,4 2,2 5 3 - - NNW 1005,8 16 -
17.07.2019 01:00:00 31,1 2,2 11 6 - - SW 1005,4 16 -
17.07.2019 00:00:00 31,7 2,2 18 10 - - SW 1005,1 16 -
16.07.2019 23:00:00 32,8 1,7 18 10 - - SW 1004,8 16 0,0
16.07.2019 22:00:00 33,3 2,2 16 9 - - SW 1004,8 16 -
16.07.2019 21:00:00 35,0 1,7 15 8 - - WSW 1003,9 16 -
16.07.2019 20:00:00 - - - - - - - - - -
16.07.2019 19:00:00 37,2 -1,1 21 11 - - SW 1002,5 16 -
16.07.2019 18:00:00 38,3 -1,1 15 8 - - SW 1002,3 16 -
16.07.2019 17:00:00 38,9 -1,1 15 8 50 27 WSW 1002,6 16 0,0
16.07.2019 16:00:00 38,9 0,0 16 9 - - SSW 1003,0 16 -
16.07.2019 15:00:00 38,9 1,7 15 8 - - SW 1003,9 16 -
16.07.2019 14:00:00 38,3 2,2 8 4 - - - 1004,7 16 -
16.07.2019 13:00:00 38,3 2,2 13 7 - - SSW 1005,5 16 -
16.07.2019 12:00:00 36,7 2,2 9 5 - - - 1006,6 16 -
16.07.2019 11:00:00 35,6 1,1 13 7 - - NE 1007,3 16 0,0
16.07.2019 10:00:00 33,3 1,1 13 7 - - N 1007,9 16 -
16.07.2019 09:00:00 31,7 0,6 5 3 - - ENE 1008,4 16 -
16.07.2019 08:00:00 29,4 1,1 8 4 - - N 1008,4 16 -

tt = temperature
td = dewpoint
ff = wind speed
fx = gusts
dd = wind direction
ppp = reduced air pressure
vv = visibility
rr = precipitation

Next stations